Terminal Aerodrome Forecast
Issued by NWS

Home | Current Version | Previous Version | Text Only | Print | Product List | Glossary On
Versions: 1 2 3 4 5 6 7 8 9 10 11 12 13 14 15 16 17 18
669
FTUS43 KSGF 220710 AAA
TAFJLN
TAF AMD
KJLN 220710Z 2207/2306 02011KT P6SM VCSH OVC007
     FM221700 01011G22KT P6SM VCSH OVC010
     FM222200 01008KT P6SM OVC035=

USA.gov is the U.S. government's official web portal to all federal, state and local government web resources and services.